QPF
0.00 0.00 0.00 0.00 0.00 0.00 0.00 0.00 0.00 0.00 0.00 0.00 0.00 0.00 0.00 0.00 0.00 0.00 0.00 0.00 0.00 0.00 0.00 0.00 0.00 0.00 0.00 0.00 0.00 0.00 0.00 0.00 0.00 0.00 0.00 0.00 0.00 0.00 0.00 0.00 0.00 0.00 0.00
0.00 0.00 0.00 0.00 0.00 0.00 0.00 0.00 0.00 0.00 0.00 0.00 0.00 0.00 0.00 0.00 0.00 0.00 0.00 0.00 0.00 0.00 0.00 0.00 0.00 0.00 0.00 0.00 0.00 0.00 0.00 0.00 0.00 0.00 0.00 0.00 0.00 0.00 0.00 0.00 0.00 0.00 0.00
0.00 0.00 0.00 0.00 0.00 0.00 0.00 0.00 0.00 0.00 0.00 0.00 0.00 0.00 0.00 0.00 0.00 0.00 0.00 0.00 0.00 0.00 0.00 0.00 0.00 0.00 0.00 0.00 0.00 0.00 0.00 0.00 0.00 0.00 0.00 0.00 0.00 0.00 0.00 0.00 0.00 0.00 0.00
0.00 0.00 0.00 0.00 0.00 0.00 0.00 0.00 0.00 0.00 0.00 0.00 0.00 0.00 0.00 0.00 0.00 0.00 0.00 0.00 0.00 0.00 0.00 0.00 0.00 0.00 0.00 0.00 0.00 0.00 0.00 0.00 0.00 0.00 0.00 0.00 0.00 0.00 0.00 0.00 0.00 0.00 0.00
0.00 0.00 0.00 0.00 0.00 0.00 0.00 0.00 0.00 0.00 0.00 0.00 0.00 0.00 0.00 0.00 0.00 0.00 0.00 0.00 0.00 0.00 0.00 0.00 0.00 0.00 0.00 0.00 0.00 0.00 0.00 0.00 0.00 0.00 0.00 0.00 0.00 0.00 0.00 0.00 0.00 0.00 0.00
0.00 0.00 0.00 0.00 0.00 0.00 0.00 0.00 0.00 0.00 0.00 0.00 0.00 0.00 0.00 0.00 0.00 0.00 0.00 0.00 0.00 0.00 0.00 0.00 0.00 0.00 0.00 0.00 0.00 0.00 0.00 0.01 0.01 0.01 0.01 0.01 0.00 0.00 0.00 0.00 0.01 0.01 0.01
0.00 0.00 0.00 0.00 0.00 0.00 0.00 0.00 0.00 0.00 0.00 0.00 0.00 0.00 0.00 0.00 0.00 0.00 0.00 0.00 0.00 0.00 0.00 0.00 0.00 0.00 0.00 0.00 0.00 0.00 0.00 0.01 0.01 0.01 0.01 0.00 0.00 0.00 0.01 0.02 0.03 0.04 0.03
0.00 0.00 0.00 0.00 0.00 0.00 0.00 0.00 0.00 0.00 0.00 0.00 0.00 0.00 0.00 0.00 0.00 0.00 0.00 0.00 0.00 0.00 0.00 0.00 0.00 0.00 0.00 0.00 0.00 0.00 0.00 0.00 0.00 0.00 0.00 0.01 0.01 0.02 0.03 0.05 0.06 0.06 0.03
0.00 0.00 0.00 0.00 0.00 0.00 0.00 0.00 0.00 0.00 0.00 0.00 0.00 0.00 0.00 0.00 0.00 0.00 0.00 0.00 0.00 0.00 0.00 0.00 0.00 0.00 0.00 0.01 0.01 0.01 0.00 0.00 0.00 0.01 0.01 0.02 0.03 0.03 0.04 0.04 0.04 0.05 0.03
0.00 0.00 0.00 0.00 0.00 0.00 0.00 0.00 0.00 0.00 0.00 0.00 0.00 0.00 0.00 0.00 0.00 0.00 0.00 0.00 0.00 0.00 0.00 0.00 0.00 0.00 0.01 0.01 0.01 0.01 0.01 0.01 0.01 0.01 0.01 0.01 0.01 0.01 0.01 0.02 0.02 0.03 0.03
0.00 0.00 0.00 0.00 0.00 0.00 0.00 0.00 0.00 0.00 0.00 0.00 0.00 0.00 0.00 0.00 0.00 0.00 0.00 0.00 0.00 0.00 0.00 0.00 0.00 0.00 0.01 0.02 0.02 0.01 0.02 0.03 0.03 0.03 0.02 0.01 0.01 0.01 0.00 0.00 0.01 0.03 0.04
0.00 0.00 0.00 0.00 0.00 0.00 0.00 0.00 0.00 0.00 0.00 0.00 0.00 0.00 0.00 0.00 0.00 0.00 0.00 0.00 0.00 0.00 0.00 0.00 0.00 0.01 0.01 0.02 0.02 0.02 0.03 0.03 0.02 0.01 0.01 0.01 0.01 0.01 0.00 0.01 0.01 0.01 0.02
0.00 0.00 0.00 0.00 0.00 0.00 0.00 0.00 0.00 0.00 0.00 0.00 0.00 0.00 0.00 0.00 0.00 0.00 0.00 0.00 0.00 0.00 0.00 0.00 0.01 0.01 0.01 0.01 0.01 0.01 0.01 0.01 0.01 0.01 0.01 0.01 0.00 0.00 0.01 0.01 0.01 0.01 0.00
0.00 0.00 0.00 0.00 0.00 0.00 0.00 0.00 0.00 0.00 0.00 0.00 0.00 0.00 0.00 0.00 0.00 0.00 0.00 0.00 0.00 0.00 0.00 0.01 0.01 0.01 0.01 0.00 0.01 0.01 0.00 0.00 0.01 0.02 0.01 0.00 0.00 0.00 0.01 0.01 0.01 0.01 0.00
0.00 0.00 0.00 0.00 0.00 0.00 0.00 0.00 0.00 0.00 0.00 0.00 0.00 0.00 0.00 0.00 0.00 0.00 0.01 0.01 0.01 0.01 0.01 0.01 0.01 0.01 0.00 0.00 0.00 0.00 0.01 0.01 0.01 0.01 0.00 0.01 0.01 0.01 0.01 0.01 0.01 0.01 0.01
0.00 0.00 0.00 0.00 0.00 0.00 0.00 0.00 0.00 0.00 0.00 0.00 0.00 0.00 0.00 0.00 0.00 0.00 0.01 0.01 0.01 0.01 0.01 0.01 0.01 0.01 0.01 0.01 0.01 0.01 0.01 0.01 0.01 0.01 0.01 0.01 0.01 0.01 0.01 0.01 0.01 0.01 0.01
0.00 0.00 0.00 0.00 0.00 0.00 0.00 0.00 0.00 0.00 0.00 0.00 0.00 0.00 0.00 0.00 0.00 0.00 0.01 0.01 0.01 0.01 0.00 0.00 0.00 0.00 0.01 0.01 0.01 0.01 0.01 0.01 0.01 0.01 0.01 0.01 0.01 0.01 0.01 0.01 0.01 0.01 0.01
0.00 0.00 0.00 0.00 0.00 0.00 0.00 0.00 0.00 0.00 0.00 0.00 0.00 0.00 0.00 0.00 0.00 0.00 0.00 0.00 0.00 0.00 0.00 0.00 0.00 0.00 0.00 0.01 0.01 0.01 0.01 0.01 0.01 0.01 0.01 0.01 0.01 0.01 0.01 0.01 0.01 0.01 0.01
0.00 0.00 0.00 0.00 0.00 0.00 0.00 0.00 0.00 0.00 0.00 0.00 0.00 0.00 0.00 0.00 0.00 0.00 0.00 0.00 0.00 0.00 0.00 0.00 0.00 0.00 0.00 0.01 0.01 0.01 0.01 0.01 0.01 0.01 0.01 0.01 0.00 0.01 0.01 0.01 0.01 0.01 0.01
0.00 0.00 0.00 0.00 0.00 0.00 0.00 0.00 0.00 0.00 0.00 0.00 0.00 0.00 0.00 0.00 0.00 0.00 0.00 0.00 0.00 0.00 0.00 0.00 0.00 0.00 0.00 0.00 0.01 0.01 0.01 0.01 0.01 0.01 0.01 0.00 0.00 0.01 0.01 0.01 0.01 0.01 0.01
0.00 0.00 0.00 0.00 0.00 0.00 0.00 0.00 0.00 0.00 0.00 0.00 0.00 0.00 0.00 0.01 0.01 0.00 0.00 0.00 0.00 0.00 0.00 0.00 0.00 0.00 0.00 0.00 0.01 0.01 0.01 0.01 0.01 0.01 0.00 0.00 0.00 0.01 0.01 0.01 0.01 0.01 0.01
0.00 0.00 0.00 0.00 0.00 0.00 0.00 0.00 0.00 0.00 0.00 0.00 0.00 0.00 0.00 0.00 0.00 0.00 0.00 0.00 0.00 0.00 0.00 0.00 0.00 0.00 0.01 0.01 0.01 0.01 0.01 0.01 0.01 0.01 0.01 0.00 0.00 0.00 0.01 0.01 0.01 0.01 0.01
0.00 0.00 0.00 0.00 0.00 0.00 0.00 0.00 0.00 0.00 0.00 0.00 0.00 0.00 0.00 0.00 0.00 0.00 0.00 0.00 0.00 0.00 0.00 0.00 0.01 0.00 0.00 0.00 0.00 0.01 0.01 0.01 0.01 0.01 0.01 0.01 0.01 0.01 0.01 0.01 0.00 0.00 0.00
0.00 0.00 0.00 0.00 0.00 0.00 0.00 0.00 0.00 0.00 0.00 0.00 0.00 0.00 0.00 0.00 0.00 0.00 0.00 0.00 0.00 0.00 0.00 0.00 0.00 0.00 0.00 0.00 0.01 0.01 0.01 0.01 0.01 0.01 0.01 0.01 0.01 0.01 0.01 0.01 0.00 0.00 0.00
0.00 0.00 0.00 0.00 0.00 0.00 0.00 0.00 0.00 0.00 0.00 0.00 0.00 0.00 0.00 0.00 0.00 0.00 0.00 0.00 0.00 0.00 0.00 0.00 0.00 0.00 0.00 0.00 0.01 0.01 0.01 0.01 0.02 0.03 0.03 0.02 0.01 0.01 0.01 0.01 0.01 0.01 0.01
0.00 0.00 0.00 0.00 0.00 0.00 0.00 0.00 0.00 0.00 0.00 0.00 0.00 0.00 0.00 0.00 0.00 0.00 0.00 0.00 0.00 0.00 0.00 0.00 0.00 0.00 0.00 0.00 0.00 0.01 0.01 0.02 0.02 0.03 0.04 0.05 0.03 0.01 0.01 0.01 0.01 0.01 0.01
MSLP
1008.97 1009.59 1010.27 1010.97 1011.66 1012.33 1012.98 1013.61 1014.24 1014.90 1015.60 1016.33 1017.08 1017.83 1018.54 1019.20 1019.78 1020.28 1020.70 1021.07 1021.40 1021.72 1022.04 1022.37 1022.72 1023.05 1023.37 1023.66 1023.89 1024.06 1024.16 1024.19 1024.13 1024.01 1023.81 1023.55 1023.21 1022.82 1022.38 1021.89 1021.38 1020.87 1020.35
1008.77 1009.34 1009.98 1010.65 1011.32 1011.97 1012.59 1013.21 1013.84 1014.48 1015.15 1015.86 1016.60 1017.33 1018.04 1018.71 1019.31 1019.83 1020.29 1020.67 1021.01 1021.32 1021.62 1021.91 1022.20 1022.49 1022.77 1023.03 1023.26 1023.45 1023.59 1023.67 1023.69 1023.63 1023.49 1023.27 1022.96 1022.57 1022.11 1021.60 1021.06 1020.51 1019.97
1008.54 1009.10 1009.72 1010.37 1011.02 1011.65 1012.27 1012.87 1013.47 1014.09 1014.73 1015.40 1016.10 1016.80 1017.49 1018.15 1018.75 1019.29 1019.77 1020.17 1020.53 1020.84 1021.12 1021.38 1021.64 1021.88 1022.12 1022.35 1022.56 1022.75 1022.91 1023.03 1023.10 1023.10 1023.01 1022.84 1022.56 1022.19 1021.75 1021.24 1020.69 1020.13 1019.58
1008.28 1008.85 1009.46 1010.10 1010.74 1011.37 1011.97 1012.56 1013.13 1013.72 1014.33 1014.95 1015.60 1016.26 1016.91 1017.54 1018.13 1018.68 1019.17 1019.60 1019.97 1020.30 1020.58 1020.83 1021.06 1021.27 1021.47 1021.66 1021.84 1022.02 1022.18 1022.31 1022.40 1022.44 1022.40 1022.27 1022.04 1021.71 1021.30 1020.82 1020.29 1019.75 1019.22
1007.99 1008.57 1009.20 1009.84 1010.48 1011.09 1011.69 1012.26 1012.82 1013.38 1013.94 1014.53 1015.12 1015.73 1016.33 1016.93 1017.50 1018.04 1018.54 1018.99 1019.38 1019.73 1020.03 1020.29 1020.51 1020.69 1020.86 1021.01 1021.15 1021.29 1021.43 1021.55 1021.65 1021.70 1021.69 1021.60 1021.43 1021.16 1020.80 1020.38 1019.90 1019.40 1018.90
1007.68 1008.29 1008.92 1009.57 1010.20 1010.81 1011.40 1011.97 1012.52 1013.05 1013.59 1014.13 1014.68 1015.24 1015.79 1016.35 1016.89 1017.41 1017.91 1018.38 1018.80 1019.18 1019.50 1019.78 1020.00 1020.17 1020.31 1020.42 1020.52 1020.61 1020.71 1020.80 1020.88 1020.94 1020.95 1020.90 1020.78 1020.58 1020.29 1019.94 1019.54 1019.10 1018.65
1007.37 1008.00 1008.65 1009.29 1009.91 1010.52 1011.11 1011.67 1012.22 1012.75 1013.27 1013.78 1014.30 1014.81 1015.32 1015.82 1016.33 1016.84 1017.33 1017.80 1018.24 1018.65 1019.00 1019.29 1019.53 1019.70 1019.82 1019.90 1019.95 1020.00 1020.04 1020.09 1020.15 1020.20 1020.23 1020.21 1020.15 1020.01 1019.81 1019.54 1019.22 1018.85 1018.45
1007.10 1007.74 1008.38 1009.01 1009.63 1010.24 1010.83 1011.40 1011.95 1012.48 1013.00 1013.50 1013.98 1014.45 1014.92 1015.38 1015.85 1016.32 1016.79 1017.26 1017.71 1018.14 1018.51 1018.83 1019.08 1019.25 1019.37 1019.43 1019.45 1019.45 1019.45 1019.46 1019.49 1019.53 1019.56 1019.58 1019.56 1019.50 1019.37 1019.18 1018.93 1018.63 1018.29
1006.90 1007.54 1008.17 1008.78 1009.39 1009.99 1010.58 1011.16 1011.72 1012.26 1012.78 1013.27 1013.73 1014.18 1014.60 1015.02 1015.44 1015.87 1016.31 1016.76 1017.20 1017.63 1018.02 1018.35 1018.62 1018.81 1018.93 1018.97 1018.97 1018.95 1018.92 1018.90 1018.91 1018.94 1018.98 1019.02 1019.04 1019.03 1018.97 1018.85 1018.67 1018.43 1018.13
1006.79 1007.42 1008.03 1008.63 1009.22 1009.81 1010.40 1010.99 1011.56 1012.11 1012.63 1013.12 1013.56 1013.97 1014.35 1014.71 1015.08 1015.46 1015.85 1016.27 1016.69 1017.11 1017.50 1017.85 1018.13 1018.33 1018.46 1018.51 1018.51 1018.48 1018.44 1018.41 1018.40 1018.42 1018.47 1018.53 1018.58 1018.61 1018.60 1018.53 1018.40 1018.20 1017.95
1006.80 1007.41 1008.00 1008.58 1009.16 1009.74 1010.33 1010.91 1011.49 1012.04 1012.56 1013.03 1013.44 1013.81 1014.14 1014.45 1014.75 1015.07 1015.41 1015.77 1016.16 1016.56 1016.94 1017.29 1017.58 1017.80 1017.95 1018.02 1018.03 1018.01 1017.98 1017.95 1017.94 1017.96 1018.01 1018.09 1018.16 1018.21 1018.23 1018.20 1018.10 1017.94 1017.71
1006.94 1007.53 1008.10 1008.67 1009.23 1009.80 1010.37 1010.95 1011.52 1012.06 1012.55 1012.99 1013.37 1013.69 1013.97 1014.21 1014.45 1014.69 1014.97 1015.28 1015.62 1015.98 1016.35 1016.69 1016.99 1017.22 1017.39 1017.49 1017.54 1017.54 1017.53 1017.52 1017.52 1017.55 1017.61 1017.69 1017.77 1017.83 1017.86 1017.84 1017.76 1017.62 1017.41
1007.18 1007.77 1008.33 1008.89 1009.44 1009.99 1010.55 1011.11 1011.65 1012.15 1012.61 1013.00 1013.33 1013.59 1013.81 1013.98 1014.15 1014.33 1014.55 1014.80 1015.09 1015.41 1015.74 1016.07 1016.37 1016.62 1016.81 1016.95 1017.03 1017.07 1017.09 1017.10 1017.13 1017.17 1017.24 1017.31 1017.39 1017.45 1017.48 1017.46 1017.39 1017.26 1017.07
1007.52 1008.11 1008.68 1009.22 1009.77 1010.30 1010.84 1011.36 1011.85 1012.31 1012.71 1013.05 1013.31 1013.51 1013.66 1013.78 1013.88 1014.00 1014.15 1014.35 1014.59 1014.87 1015.17 1015.48 1015.77 1016.02 1016.24 1016.40 1016.51 1016.59 1016.65 1016.70 1016.75 1016.81 1016.88 1016.95 1017.02 1017.07 1017.09 1017.06 1016.99 1016.87 1016.70
1007.92 1008.52 1009.09 1009.65 1010.19 1010.71 1011.21 1011.69 1012.13 1012.52 1012.85 1013.12 1013.32 1013.45 1013.54 1013.60 1013.66 1013.72 1013.82 1013.97 1014.16 1014.40 1014.66 1014.94 1015.21 1015.46 1015.68 1015.86 1016.01 1016.12 1016.21 1016.29 1016.37 1016.44 1016.52 1016.59 1016.65 1016.69 1016.70 1016.67 1016.60 1016.49 1016.34
1008.35 1008.97 1009.56 1010.13 1010.66 1011.16 1011.63 1012.06 1012.44 1012.77 1013.03 1013.22 1013.36 1013.44 1013.47 1013.49 1013.50 1013.53 1013.59 1013.69 1013.84 1014.03 1014.25 1014.49 1014.73 1014.96 1015.17 1015.35 1015.51 1015.64 1015.76 1015.87 1015.97 1016.06 1016.15 1016.22 1016.28 1016.31 1016.31 1016.28 1016.21 1016.12 1015.99
1008.79 1009.43 1010.04 1010.62 1011.15 1011.64 1012.07 1012.45 1012.77 1013.03 1013.23 1013.36 1013.44 1013.47 1013.47 1013.46 1013.44 1013.45 1013.48 1013.54 1013.65 1013.79 1013.95 1014.14 1014.33 1014.52 1014.70 1014.86 1015.02 1015.16 1015.29 1015.41 1015.53 1015.64 1015.74 1015.83 1015.89 1015.92 1015.93 1015.90 1015.85 1015.77 1015.67
1009.23 1009.89 1010.52 1011.10 1011.64 1012.11 1012.51 1012.85 1013.12 1013.32 1013.46 1013.55 1013.58 1013.58 1013.56 1013.53 1013.50 1013.48 1013.49 1013.52 1013.57 1013.65 1013.76 1013.87 1014.00 1014.13 1014.26 1014.39 1014.52 1014.65 1014.78 1014.92 1015.05 1015.18 1015.30 1015.40 1015.48 1015.53 1015.54 1015.53 1015.50 1015.44 1015.37
1009.67 1010.34 1010.98 1011.57 1012.10 1012.56 1012.94 1013.25 1013.48 1013.64 1013.74 1013.79 1013.80 1013.78 1013.75 1013.71 1013.67 1013.63 1013.61 1013.60 1013.60 1013.62 1013.65 1013.68 1013.73 1013.78 1013.84 1013.92 1014.01 1014.12 1014.24 1014.38 1014.53 1014.67 1014.81 1014.93 1015.03 1015.11 1015.15 1015.16 1015.15 1015.12 1015.08
1010.11 1010.79 1011.44 1012.03 1012.55 1013.00 1013.36 1013.64 1013.85 1013.98 1014.06 1014.09 1014.09 1014.07 1014.03 1013.98 1013.93 1013.88 1013.82 1013.77 1013.71 1013.65 1013.60 1013.54 1013.49 1013.46 1013.45 1013.46 1013.50 1013.58 1013.68 1013.82 1013.97 1014.13 1014.29 1014.44 1014.57 1014.67 1014.74 1014.79 1014.81 1014.81 1014.79
1010.58 1011.25 1011.89 1012.48 1012.99 1013.43 1013.78 1014.05 1014.24 1014.36 1014.43 1014.45 1014.45 1014.42 1014.38 1014.33 1014.26 1014.18 1014.09 1013.98 1013.86 1013.72 1013.58 1013.43 1013.29 1013.17 1013.08 1013.03 1013.02 1013.06 1013.14 1013.27 1013.42 1013.60 1013.77 1013.95 1014.10 1014.23 1014.33 1014.41 1014.46 1014.50 1014.51
1011.07 1011.73 1012.35 1012.92 1013.43 1013.85 1014.19 1014.45 1014.63 1014.75 1014.82 1014.85 1014.84 1014.81 1014.77 1014.70 1014.62 1014.51 1014.37 1014.21 1014.02 1013.80 1013.57 1013.34 1013.12 1012.92 1012.76 1012.65 1012.59 1012.59 1012.65 1012.77 1012.92 1013.10 1013.29 1013.48 1013.65 1013.81 1013.94 1014.04 1014.12 1014.18 1014.23
1011.58 1012.21 1012.81 1013.37 1013.85 1014.26 1014.59 1014.85 1015.03 1015.15 1015.21 1015.24 1015.23 1015.20 1015.14 1015.06 1014.95 1014.80 1014.62 1014.40 1014.15 1013.87 1013.57 1013.27 1012.98 1012.72 1012.50 1012.34 1012.25 1012.22 1012.26 1012.36 1012.50 1012.68 1012.87 1013.06 1013.25 1013.42 1013.57 1013.69 1013.80 1013.89 1013.96
1012.10 1012.71 1013.28 1013.80 1014.27 1014.66 1014.98 1015.22 1015.40 1015.51 1015.58 1015.60 1015.58 1015.54 1015.46 1015.35 1015.21 1015.02 1014.80 1014.53 1014.23 1013.90 1013.55 1013.20 1012.86 1012.56 1012.31 1012.12 1012.00 1011.95 1011.97 1012.05 1012.18 1012.34 1012.53 1012.72 1012.90 1013.07 1013.22 1013.36 1013.48 1013.59 1013.69
1012.62 1013.19 1013.73 1014.22 1014.65 1015.02 1015.32 1015.55 1015.72 1015.82 1015.87 1015.88 1015.85 1015.78 1015.68 1015.54 1015.36 1015.14 1014.88 1014.57 1014.23 1013.86 1013.49 1013.11 1012.75 1012.43 1012.16 1011.96 1011.82 1011.76 1011.76 1011.82 1011.93 1012.08 1012.24 1012.41 1012.58 1012.75 1012.90 1013.04 1013.17 1013.29 1013.41
1013.12 1013.65 1014.15 1014.61 1015.01 1015.35 1015.62 1015.83 1015.97 1016.05 1016.08 1016.06 1016.01 1015.91 1015.77 1015.60 1015.39 1015.13 1014.83 1014.50 1014.13 1013.75 1013.35 1012.97 1012.61 1012.29 1012.02 1011.81 1011.67 1011.60 1011.58 1011.63 1011.71 1011.83 1011.97 1012.12 1012.27 1012.42 1012.56 1012.70 1012.84 1012.97 1013.10
Thickness
5637 5632 5627 5621 5616 5610 5604 5598 5591 5585 5578 5571 5565 5558 5551 5544 5538 5531 5524 5517 5510 5503 5497 5491 5485 5479 5471 5465 5458 5451 5444 5437 5435 5439 5432 5427 5421 5415 5410 5405 5399 5394 5389
5630 5625 5620 5614 5609 5603 5598 5592 5585 5579 5572 5566 5559 5552 5545 5538 5531 5524 5517 5510 5503 5496 5490 5483 5477 5470 5463 5456 5449 5443 5436 5429 5423 5423 5421 5414 5407 5401 5396 5390 5384 5378 5373
5623 5618 5612 5607 5602 5597 5591 5585 5579 5572 5565 5559 5552 5545 5538 5531 5524 5517 5510 5503 5496 5490 5483 5475 5469 5461 5454 5448 5441 5434 5427 5421 5413 5408 5407 5401 5394 5387 5381 5375 5369 5363 5358
5616 5610 5605 5600 5595 5590 5584 5578 5572 5565 5558 5551 5545 5539 5532 5524 5517 5510 5502 5495 5488 5481 5475 5467 5460 5453 5446 5439 5432 5424 5417 5409 5402 5395 5391 5386 5379 5372 5363 5358 5355 5349 5344
5609 5604 5599 5593 5588 5582 5576 5570 5564 5557 5551 5544 5537 5530 5523 5516 5509 5502 5494 5487 5479 5472 5465 5458 5451 5444 5437 5430 5423 5414 5405 5397 5389 5382 5377 5371 5364 5355 5347 5342 5339 5336 5332
5603 5597 5591 5585 5579 5573 5567 5561 5555 5548 5542 5535 5528 5521 5515 5509 5502 5495 5487 5479 5471 5464 5456 5449 5442 5434 5427 5421 5413 5405 5396 5386 5377 5369 5363 5356 5350 5341 5334 5328 5322 5320 5319
5595 5589 5583 5577 5571 5565 5559 5552 5546 5539 5532 5526 5519 5513 5506 5500 5494 5488 5480 5471 5463 5455 5447 5439 5432 5424 5417 5408 5401 5393 5384 5374 5366 5358 5350 5343 5335 5329 5321 5315 5309 5304 5301
5586 5580 5575 5569 5563 5556 5550 5544 5537 5530 5523 5517 5510 5504 5497 5491 5485 5478 5471 5462 5454 5446 5438 5430 5421 5413 5404 5396 5388 5380 5371 5362 5353 5344 5337 5330 5323 5315 5307 5302 5297 5293 5289
5578 5573 5567 5561 5554 5547 5541 5534 5527 5520 5514 5507 5501 5494 5487 5480 5475 5468 5461 5451 5443 5435 5427 5419 5410 5401 5394 5386 5378 5369 5360 5351 5342 5334 5326 5318 5311 5303 5296 5289 5284 5278 5276
5572 5566 5559 5553 5547 5539 5533 5525 5518 5512 5505 5498 5490 5484 5477 5470 5464 5457 5450 5441 5433 5425 5417 5407 5399 5390 5382 5373 5363 5354 5346 5339 5330 5322 5313 5304 5296 5289 5283 5276 5269 5264 5262
5563 5556 5550 5544 5538 5531 5523 5516 5509 5502 5494 5487 5480 5473 5466 5459 5453 5446 5439 5430 5421 5413 5404 5395 5386 5378 5370 5361 5351 5341 5333 5326 5318 5309 5300 5292 5284 5277 5270 5265 5259 5255 5252
5553 5546 5539 5533 5527 5520 5513 5505 5498 5491 5483 5475 5468 5461 5454 5447 5441 5434 5428 5420 5412 5402 5393 5384 5374 5366 5357 5348 5338 5329 5321 5312 5302 5294 5286 5279 5272 5265 5260 5256 5253 5249 5246
5542 5535 5528 5522 5515 5509 5502 5494 5487 5479 5472 5464 5456 5449 5443 5436 5429 5423 5416 5408 5400 5390 5381 5373 5363 5354 5344 5333 5323 5315 5306 5296 5287 5280 5273 5267 5260 5255 5251 5248 5246 5243 5241
5531 5523 5517 5510 5503 5497 5491 5484 5477 5469 5461 5454 5446 5439 5432 5424 5416 5409 5402 5394 5386 5377 5367 5358 5350 5339 5329 5319 5310 5300 5290 5282 5275 5268 5262 5256 5250 5246 5242 5240 5238 5236 5234
5519 5512 5505 5499 5492 5485 5479 5473 5467 5460 5453 5446 5438 5430 5421 5413 5407 5401 5392 5383 5374 5364 5355 5344 5334 5323 5313 5304 5295 5287 5279 5271 5264 5257 5251 5246 5242 5239 5236 5234 5231 5229 5227
5508 5501 5494 5487 5480 5474 5467 5460 5456 5450 5444 5437 5429 5421 5413 5405 5398 5389 5380 5371 5361 5352 5340 5328 5318 5308 5299 5291 5283 5276 5268 5261 5254 5249 5243 5238 5234 5231 5229 5227 5226 5224 5222
5499 5491 5483 5477 5470 5463 5456 5449 5441 5436 5431 5424 5417 5409 5401 5393 5385 5376 5367 5358 5348 5337 5324 5312 5303 5294 5286 5279 5272 5265 5258 5252 5246 5240 5235 5231 5228 5225 5223 5222 5222 5221 5220
5488 5482 5474 5466 5459 5452 5445 5438 5431 5424 5416 5409 5402 5395 5388 5380 5371 5362 5354 5343 5331 5320 5309 5298 5290 5282 5275 5268 5262 5255 5249 5244 5239 5234 5229 5225 5222 5220 5219 5218 5218 5217 5217
5477 5469 5462 5455 5448 5441 5434 5427 5419 5413 5405 5397 5389 5381 5374 5366 5357 5348 5339 5327 5316 5306 5297 5288 5280 5272 5266 5259 5253 5248 5242 5238 5234 5229 5225 5222 5219 5217 5216 5216 5215 5217 5217
5465 5461 5453 5444 5437 5430 5423 5416 5408 5401 5393 5385 5376 5368 5361 5352 5342 5333 5323 5313 5303 5294 5286 5278 5271 5264 5258 5252 5246 5241 5237 5233 5230 5226 5223 5220 5217 5216 5215 5214 5214 5213 5214
5454 5448 5443 5434 5426 5419 5412 5405 5397 5389 5381 5373 5365 5357 5351 5341 5330 5321 5311 5302 5293 5284 5276 5269 5262 5256 5251 5246 5241 5236 5233 5230 5227 5223 5220 5218 5216 5215 5214 5213 5213 5213 5213
5443 5436 5429 5422 5415 5409 5402 5394 5386 5378 5370 5361 5353 5345 5339 5328 5318 5309 5300 5292 5283 5275 5268 5261 5255 5250 5246 5241 5237 5233 5230 5227 5224 5222 5219 5217 5216 5215 5214 5213 5212 5212 5213
5432 5425 5418 5411 5405 5399 5391 5383 5375 5366 5358 5350 5342 5334 5326 5316 5307 5299 5290 5282 5274 5267 5261 5255 5250 5246 5242 5238 5235 5231 5228 5226 5223 5221 5219 5217 5215 5214 5213 5213 5212 5212 5212
5421 5414 5407 5400 5394 5386 5379 5371 5363 5356 5347 5339 5331 5323 5315 5306 5297 5289 5282 5274 5267 5261 5255 5250 5246 5242 5239 5235 5232 5229 5227 5225 5223 5221 5219 5217 5215 5214 5214 5213 5212 5212 5212
5410 5403 5396 5389 5382 5375 5368 5360 5353 5345 5337 5330 5322 5314 5305 5297 5288 5281 5273 5267 5261 5255 5250 5246 5242 5239 5236 5233 5230 5228 5226 5225 5224 5222 5221 5218 5217 5215 5214 5213 5213 5212 5212
5398 5392 5385 5378 5370 5363 5356 5349 5341 5333 5326 5319 5311 5303 5295 5287 5280 5273 5266 5260 5255 5250 5246 5243 5240 5237 5234 5232 5230 5228 5227 5226 5226 5225 5223 5221 5219 5218 5216 5215 5214 5214 5213